Location: Maddington
(51.2000°N, 1.9167°W)
Time: 22:49:48
(UTC+00:00)

ATLAS CENTAUR R/B - Pass Details

Date: 18 September 2020
Orbit: 479 x 667 km, 64.7° (Epoch: 12 October)

Event Time Altitude Azimuth Distance (km) Brightness Sun altitude
Rises 21:07:04 0° 303° (WNW) 2,597 6.1 -25.7°
Reaches altitude 10° 21:10:59 10° 344° (NNW) 1,683 4.5 -26.2°
Maximum altitude 21:11:50 11° 357° (N) 1,640 4.3 -26.3°
Drops below altitude 10° 21:12:41 10° 11° (N) 1,674 4.1 -26.4°
Enters shadow 21:13:42 - 25° (NNE) 1,807 4.1 -26.5°
